This is the latest recevied weather packets stored in our database for station/object G4WLC-1. If no packets are shown the sender has not sent any weather packets the latest 10 day(s).
| Time | Temp. | Humidity | Pressure | Rain* | Wind** | Luminosity | Snow |
|---|---|---|---|---|---|---|---|
| 1777742892 | 11.67° C | 90% | 1011.6 hPa | 3.81 mm | - | - | - |
| 1777742592 | 12.22° C | 90% | 1012.1 hPa | 3.3 mm | - | - | - |
| 1777742292 | 12.22° C | 90% | 1012 hPa | 3.56 mm | - | - | - |
| 1777741992 | 12.22° C | 90% | 1012 hPa | 3.81 mm | - | - | - |
| 1777741692 | 12.22° C | 90% | 1012.1 hPa | 4.32 mm | - | - | - |
| 1777741392 | 12.22° C | 90% | 1012.1 hPa | 4.32 mm | - | - | - |
| 1777741092 | 12.22° C | 90% | 1012.2 hPa | 4.57 mm | - | - | - |
| 1777740792 | 12.22° C | 89% | 1012.4 hPa | 4.83 mm | - | - | - |
| 1777740492 | 12.22° C | 89% | 1012.5 hPa | 5.08 mm | - | - | - |
| 1777740192 | 12.22° C | 89% | 1012.4 hPa | 5.33 mm | - | - | - |
| 1777739892 | 12.22° C | 89% | 1012.7 hPa | 5.33 mm | - | - | - |
| 1777739592 | 12.22° C | 88% | 1012.7 hPa | 5.33 mm | - | - | - |
| 1777739292 | 12.78° C | 88% | 1012.7 hPa | 5.08 mm | - | - | - |
| 1777738992 | 12.78° C | 88% | 1012.9 hPa | 4.83 mm | - | - | - |
| 1777738692 | 12.78° C | 87% | 1012.9 hPa | 4.32 mm | - | - | - |
| 1777738392 | 12.78° C | 86% | 1012.9 hPa | 3.81 mm | - | - | - |
| 1777738092 | 13.33° C | 86% | 1013 hPa | 3.3 mm | - | - | - |
| 1777737792 | 13.33° C | 85% | 1013 hPa | 3.05 mm | - | - | - |
| 1777737492 | 13.33° C | 84% | 1013.1 hPa | 2.54 mm | - | - | - |
| 1777737192 | 13.89° C | 84% | 1013.1 hPa | 2.03 mm | - | - | - |
| 1777736892 | 13.89° C | 83% | 1013.1 hPa | 1.52 mm | - | - | - |
| 1777736592 | 14.44° C | 82% | 1013 hPa | 1.02 mm | - | - | - |
| 1777736292 | 15° C | 79% | 1012.9 hPa | 0.51 mm | - | - | - |
| 1777735992 | 15° C | 78% | 1013.1 hPa | 0.25 mm | - | - | - |
| 1777735692 | 15.56° C | 76% | 1013 hPa | 0 mm | - | - | - |
* Rain latest hour (hover to see other rain measurements)
** Current wind speed in m/s (hover to see current wind gust speed)